Weather History for Montevideo, MN

Change the Weather History Date:

Monday, February 18, 2013

  Actual Average Record
Temperature  
Mean Temperature 16 °F -  
Max Temperature 35 °F 29 °F 61 °F (1981)
Min Temperature -2 °F 12 °F -20 °F (1958)
Degree Days  
Heating Degree Days 48    
Moisture  
Dew Point 13 °F    
Average Humidity 88    
Maximum Humidity 100    
Minimum Humidity 78    
Precipitation  
Precipitation 0.00 in - - ()
Sea Level Pressure  
Sea Level Pressure 29.74 in    
Wind  
Wind Speed 16 mph (NNW)    
Max Wind Speed 32 mph    
Max Gust Speed 44 mph    
Visibility 6 miles    
Events Snow    
Averages and records for this station are not official NWS values.
T = Trace of Precipitation, MM = Missing Value Source: NWS Daily Summary

Daily Weather History Graph

Daily Weather History Graph

Search for Another Location

Airport:

Trip Planner

Search our weather history database for the weather conditions in past years. The results will help you decide how hot, cold, wet, or windy it might be!

Date:

Astronomy

Feb. 18, 2013 Rise Set
Actual Time 7:18 AM CST 5:55 PM CST
Civil Twilight 6:48 AM CST 6:25 PM CST
Nautical Twilight 6:14 AM CST 6:59 PM CST
Astronomical Twilight 5:40 AM CST 7:33 PM CST
Moon 11:34 AM CST (2/18) 2:06 AM CST (2/18)
Length of Visible Light 11h 36m
Length of Day
10h 37m
First Quarter, 58% of the Moon is Illuminated
Feb 18
First Quarter
Feb 25
Full
Mar 4
Last Quarter
Mar 11
New
Mar 19
First Quarter

Hourly Weather History & Observations

Time (CST) Temp. Windchill Dew Point Humidity Pressure Visibility Wind Dir Wind Speed Gust Speed Precip Events Conditions
12:14 AM 30.2 °F 23.4 °F 28.4 °F 93% 29.51 in 10.0 mi WSW 6.9 mph - N/A   Clear
12:33 AM 32.0 °F 25.6 °F 28.4 °F 87% 29.51 in 10.0 mi WSW 6.9 mph - N/A   Clear
12:54 AM 30.2 °F 21.9 °F 28.4 °F 93% 29.52 in 10.0 mi West 9.2 mph - N/A   Clear
1:14 AM 30.2 °F 22.6 °F 28.4 °F 93% 29.52 in 10.0 mi WNW 8.1 mph - N/A   Clear
1:33 AM 28.4 °F 20.4 °F 28.4 °F 100% 29.52 in 10.0 mi WNW 8.1 mph - N/A   Clear
1:54 AM 28.4 °F 19.7 °F 26.6 °F 93% 29.52 in 7.0 mi WNW 9.2 mph - N/A   Clear
2:14 AM 28.4 °F 22.2 °F 26.6 °F 93% 29.53 in 7.0 mi WNW 5.8 mph - N/A   Clear
2:33 AM 26.6 °F 19.1 °F 26.6 °F 100% 29.53 in 10.0 mi WNW 6.9 mph - N/A   Clear
2:54 AM 26.6 °F 21.2 °F 26.6 °F 100% 29.53 in 10.0 mi West 4.6 mph - N/A   Clear
3:14 AM 26.6 °F 20.0 °F 26.6 °F 100% 29.55 in 10.0 mi West 5.8 mph - N/A   Clear
3:33 AM 28.4 °F 23.3 °F 26.6 °F 93% 29.55 in 10.0 mi West 4.6 mph - N/A   Mostly Cloudy
3:54 AM 28.4 °F 23.3 °F 26.6 °F 93% 29.55 in 10.0 mi West 4.6 mph - N/A   Overcast
4:14 AM 28.4 °F 22.2 °F 26.6 °F 93% 29.55 in 10.0 mi NW 5.8 mph - N/A   Overcast
4:33 AM 30.2 °F 23.4 °F 28.4 °F 93% 29.54 in 10.0 mi NW 6.9 mph - N/A   Overcast
4:54 AM 33.8 °F 27.0 °F 30.2 °F 87% 29.55 in 10.0 mi NW 8.1 mph - N/A   Overcast
5:14 AM 35.6 °F 26.6 °F 32.0 °F 87% 29.54 in 10.0 mi NW 13.8 mph 18.4 mph N/A   Overcast
5:34 AM 35.6 °F 27.1 °F 32.0 °F 87% 29.54 in 10.0 mi NW 12.7 mph 19.6 mph N/A   Overcast
5:54 AM 35.6 °F 26.6 °F 32.0 °F 87% 29.54 in 10.0 mi NW 13.8 mph 19.6 mph N/A   Overcast
6:14 AM 35.6 °F 26.6 °F 32.0 °F 87% 29.54 in 7.0 mi NNW 13.8 mph 23.0 mph N/A   Overcast
6:34 AM 35.6 °F 25.5 °F 32.0 °F 87% 29.54 in 7.0 mi NW 17.3 mph 25.3 mph N/A   Overcast
6:54 AM 28.4 °F 13.0 °F 26.6 °F 93% 29.56 in 7.0 mi North 28.8 mph 38.0 mph N/A   Overcast
7:14 AM 26.6 °F 11.4 °F 24.8 °F 93% 29.58 in 5.0 mi North 25.3 mph 35.7 mph N/A   Overcast
7:34 AM 26.6 °F 12.7 °F 24.8 °F 93% 29.60 in 7.0 mi North 20.7 mph 35.7 mph N/A   Overcast
8:14 AM 24.8 °F 10.0 °F 21.2 °F 86% 29.63 in 10.0 mi North 21.9 mph 31.1 mph N/A   Overcast
8:34 AM 24.8 °F 10.7 °F 21.2 °F 86% 29.64 in 10.0 mi North 19.6 mph 29.9 mph N/A   Overcast
8:54 AM 23.0 °F 8.0 °F 19.4 °F 86% 29.65 in 10.0 mi NNW 20.7 mph 28.8 mph N/A   Overcast
9:14 AM 21.2 °F 4.2 °F 19.4 °F 93% 29.67 in 5.0 mi North 25.3 mph 32.2 mph N/A   Overcast
9:34 AM 21.2 °F 4.5 °F 19.4 °F 93% 29.68 in 10.0 mi North 24.2 mph 34.5 mph N/A   Overcast
9:54 AM 21.2 °F 4.2 °F 17.6 °F 86% 29.69 in 7.0 mi North 25.3 mph 34.5 mph N/A   Overcast
10:13 AM 19.4 °F 3.6 °F 17.6 °F 93% 29.71 in 1.2 mi North 19.6 mph 25.3 mph N/A Snow Light Snow
10:34 AM 19.4 °F 1.4 °F 15.8 °F 86% 29.71 in 2.5 mi North 26.5 mph 33.4 mph N/A Snow Light Snow
10:54 AM 17.6 °F -0.3 °F 14.0 °F 86% 29.73 in 2.5 mi North 24.2 mph 34.5 mph N/A Snow Light Snow
11:13 AM 15.8 °F -4.4 °F 12.2 °F 86% 29.74 in 3.0 mi North 29.9 mph 38.0 mph N/A Snow Light Snow
11:34 AM 15.8 °F -4.1 °F 12.2 °F 86% 29.75 in 3.0 mi North 28.8 mph 36.8 mph N/A Snow Light Snow
11:54 AM 15.8 °F -3.4 °F 10.4 °F 79% 29.76 in 4.0 mi North 26.5 mph 35.7 mph N/A Snow Light Snow
12:13 PM 14.0 °F -5.8 °F 8.6 °F 79% 29.77 in 7.0 mi North 26.5 mph 40.3 mph N/A   Overcast
12:34 PM 14.0 °F -4.3 °F 8.6 °F 79% 29.77 in 2.5 mi North 21.9 mph 34.5 mph N/A Snow Light Snow
12:54 PM 12.2 °F -7.1 °F 8.6 °F 85% 29.77 in 3.0 mi North 23.0 mph 40.3 mph N/A Snow Light Snow
1:13 PM 12.2 °F -7.5 °F 8.6 °F 85% 29.78 in 2.5 mi North 24.2 mph 36.8 mph N/A Snow Light Snow
1:34 PM 12.2 °F -7.9 °F 8.6 °F 85% 29.78 in 2.5 mi North 25.3 mph 36.8 mph N/A Snow Light Snow
1:54 PM 12.2 °F -8.6 °F 8.6 °F 85% 29.78 in 2.5 mi North 27.6 mph 39.1 mph N/A   Haze
2:13 PM 12.2 °F -6.3 °F 8.6 °F 85% 29.80 in 1.8 mi North 20.7 mph 36.8 mph N/A Snow Light Snow
2:34 PM 12.2 °F -8.6 °F 8.6 °F 85% 29.80 in 1.2 mi North 27.6 mph 33.4 mph N/A Snow Light Snow
2:54 PM 10.4 °F -9.9 °F 8.6 °F 92% 29.81 in 2.0 mi North 24.2 mph 32.2 mph N/A   Overcast
3:14 PM 10.4 °F -10.7 °F 6.8 °F 85% 29.82 in 1.5 mi North 26.5 mph 35.7 mph N/A Snow Light Snow
3:34 PM 10.4 °F -10.7 °F 6.8 °F 85% 29.83 in 7.0 mi North 26.5 mph 34.5 mph N/A   Overcast
3:54 PM 10.4 °F -12.0 °F 5.0 °F 79% 29.83 in 7.0 mi North 31.1 mph 35.7 mph N/A   Overcast
4:14 PM 8.6 °F -13.4 °F 5.0 °F 85% 29.85 in 7.0 mi North 27.6 mph 36.8 mph N/A   Overcast
4:33 PM 8.6 °F -13.8 °F 3.2 °F 79% 29.85 in 7.0 mi North 28.8 mph 36.8 mph N/A   Overcast
4:54 PM 8.6 °F -12.7 °F 5.0 °F 85% 29.86 in 2.0 mi North 25.3 mph 32.2 mph N/A Snow Light Snow
5:14 PM 6.8 °F -14.7 °F 5.0 °F 92% 29.87 in 0.5 mi North 24.2 mph 31.1 mph N/A Snow Light Snow
5:33 PM 6.8 °F -16.9 °F 3.2 °F 85% 29.88 in 0.2 mi North 31.1 mph 35.7 mph N/A Snow Snow
5:54 PM 6.8 °F -15.5 °F 3.2 °F 85% 29.89 in 1.0 mi North 26.5 mph 33.4 mph N/A Snow Light Snow
6:14 PM 5.0 °F -17.9 °F 3.2 °F 92% 29.90 in 1.5 mi North 26.5 mph 39.1 mph N/A Snow Light Snow
6:33 PM 5.0 °F -18.3 °F 1.4 °F 85% 29.91 in 1.8 mi North 27.6 mph 35.7 mph N/A Snow Light Snow
6:54 PM 3.2 °F -21.5 °F 1.4 °F 92% 29.92 in 2.0 mi North 29.9 mph 43.7 mph N/A Snow Light Snow
7:14 PM 3.2 °F -20.3 °F 1.4 °F 92% 29.92 in 1.8 mi North 26.5 mph 35.7 mph N/A Snow Light Snow
7:33 PM 3.2 °F -19.5 °F 1.4 °F 92% 29.93 in 2.0 mi North 24.2 mph 36.8 mph N/A Snow Light Snow
7:54 PM 3.2 °F -21.1 °F 1.4 °F 92% 29.93 in 2.0 mi North 28.8 mph 36.8 mph N/A Snow Light Snow
8:14 PM 3.2 °F -19.9 °F 1.4 °F 92% 29.94 in 1.2 mi North 25.3 mph 33.4 mph N/A Snow Light Snow
8:33 PM 1.4 °F -24.6 °F -0.4 °F 92% 29.94 in 2.5 mi North 32.2 mph 40.3 mph N/A   Overcast
8:54 PM 1.4 °F -23.5 °F -2.2 °F 85% 29.95 in 7.0 mi North 28.8 mph 38.0 mph N/A   Overcast
9:14 PM 1.4 °F -23.5 °F -2.2 °F 85% 29.95 in 5.0 mi North 28.8 mph 36.8 mph N/A   Overcast
9:33 PM -0.4 °F -26.4 °F -2.2 °F 92% 29.96 in 5.0 mi North 29.9 mph 38.0 mph N/A   Overcast
9:54 PM -0.4 °F -27.1 °F -4.0 °F 85% 29.97 in 4.0 mi North 32.2 mph 43.7 mph N/A   Overcast
10:14 PM -0.4 °F -22.8 °F -4.0 °F 85% 29.98 in 5.0 mi North 20.7 mph 34.5 mph N/A   Overcast
10:34 PM -0.4 °F -25.2 °F -5.8 °F 78% 29.99 in 5.0 mi North 26.5 mph 36.8 mph N/A   Overcast
10:54 PM -0.4 °F -25.2 °F -5.8 °F 78% 29.99 in 5.0 mi North 26.5 mph 35.7 mph N/A   Overcast
11:14 PM -2.2 °F -28.0 °F -5.8 °F 85% 30.00 in 5.0 mi North 27.6 mph 36.8 mph N/A   Overcast
11:34 PM -0.4 °F -24.3 °F -5.8 °F 78% 30.01 in 7.0 mi North 24.2 mph 35.7 mph N/A   Overcast
11:54 PM -0.4 °F -25.2 °F -4.0 °F 85% 30.02 in 5.0 mi North 26.5 mph 33.4 mph N/A   Overcast